Weather History for Hamadan, Iran

Change the Weather History Date:

Monday, February 18, 2013

  Actual Average Record
Temperature  
Mean Temperature 34 °F -  
Max Temperature 50 °F - - ()
Min Temperature 19 °F - - ()
Degree Days  
Heating Degree Days 30    
Moisture  
Dew Point 16 °F    
Average Humidity 48    
Maximum Humidity 80    
Minimum Humidity 22    
Precipitation  
Precipitation 0.00 in - - ()
Sea Level Pressure  
Sea Level Pressure 29.96 in    
Wind  
Wind Speed 2 mph ()    
Max Wind Speed 12 mph    
Max Gust Speed -    
Visibility 6.2 miles    
Events      
T = Trace of Precipitation, MM = Missing Value Source: Averaged Metar Reports

Daily Weather History Graph

Daily Weather History Graph

Search for Another Location

Airport:

Trip Planner

Search our weather history database for the weather conditions in past years. The results will help you decide how hot, cold, wet, or windy it might be!

Date:

Astronomy

Feb. 18, 2013 Rise Set
Actual Time 6:58 AM IRST 6:01 PM IRST
Civil Twilight 6:32 AM IRST 6:27 PM IRST
Nautical Twilight 6:03 AM IRST 6:56 PM IRST
Astronomical Twilight 5:33 AM IRST 7:26 PM IRST
Moon 11:37 AM IRST (2/18) 1:11 AM IRST (2/18)
Length of Visible Light 11h 54m
Length of Day
11h 03m
First Quarter, 55% of the Moon is Illuminated
Feb 18
First Quarter
Feb 25
Full
Mar 5
Last Quarter
Mar 11
New
Mar 19
First Quarter

Hourly Weather History & Observations

Time (IRST) Temp. Windchill Dew Point Humidity Pressure Visibility Wind Dir Wind Speed Gust Speed Precip Events Conditions
1:30 AM 26.6 °F - 15.8 °F 64% 29.98 in 6.2 mi Calm Calm - N/A   Partly Cloudy
2:30 AM 24.8 °F - 15.8 °F 69% 29.98 in 6.2 mi Calm Calm - N/A   Partly Cloudy
4:30 AM 21.2 °F - 15.8 °F 80% 29.95 in 6.2 mi Calm Calm - N/A   Partly Cloudy
5:30 AM 19.4 °F - 14.0 °F 80% 29.95 in 6.2 mi Calm Calm - N/A   Partly Cloudy
6:30 AM 21.2 °F - 15.8 °F 80% 29.95 in 6.2 mi Calm Calm - N/A   Partly Cloudy
7:30 AM 26.6 °F - 17.6 °F 69% 29.98 in 6.2 mi Calm Calm - N/A   Partly Cloudy
8:30 AM 32.0 °F 25.6 °F 23.0 °F 69% 29.98 in 6.2 mi ESE 6.9 mph - N/A   Partly Cloudy
9:30 AM 37.4 °F 33.8 °F 21.2 °F 52% 29.98 in - North 4.6 mph - N/A   Clear
10:30 AM 42.8 °F - 21.2 °F 42% 29.95 in 6.2 mi Calm Calm - N/A   Partly Cloudy
11:30 AM 46.4 °F 42.9 °F 19.4 °F 34% 29.95 in 6.2 mi NNW 6.9 mph - N/A   Partly Cloudy
12:30 PM 46.4 °F 44.3 °F 17.6 °F 32% 29.95 in 6.2 mi ENE 4.6 mph - N/A   Partly Cloudy
1:30 PM 48.2 °F - 15.8 °F 27% 29.92 in 6.2 mi WSW 6.9 mph - N/A   Partly Cloudy
2:30 PM 50.0 °F - 12.2 °F 22% 29.92 in 6.2 mi West 11.5 mph - N/A   Scattered Clouds
3:30 PM 50.0 °F - 17.6 °F 28% 29.92 in 6.2 mi WSW 4.6 mph - N/A   Scattered Clouds
4:30 PM 50.0 °F - 17.6 °F 28% 29.92 in 6.2 mi West 9.2 mph - N/A   Scattered Clouds
5:30 PM 48.2 °F - 14.0 °F 25% 29.92 in 6.2 mi WSW 6.9 mph - N/A   Partly Cloudy
6:30 PM 42.8 °F 40.1 °F 12.2 °F 29% 29.95 in 6.2 mi WSW 4.6 mph - N/A   Partly Cloudy
7:30 PM 41.0 °F - 12.2 °F 31% 29.95 in 6.2 mi Calm Calm - N/A   Partly Cloudy
8:30 PM 35.6 °F - 12.2 °F 38% 29.98 in - Calm Calm - N/A   Clear
9:30 PM 32.0 °F - 14.0 °F 48% 29.98 in - Calm Calm - N/A   Clear
10:30 PM 32.0 °F - 17.6 °F 55% 29.98 in - Calm Calm - N/A   Clear
11:30 PM 32.0 °F 27.5 °F 17.6 °F 55% 29.98 in - East 4.6 mph - N/A   Clear